SCP
1 1 0 0 0 0 1 1 1 1 1 1 1 0 0 0 0 0 0 0 0 0 0 1 1 1 1 2 2 2 1 1 0 0 0 0 0 0 0 0 0 0 0
0 1 1 1 1 1 1 1 1 1 1 1 1 0 0 0 0 0 0 0 0 0 0 0 0 1 1 2 2 3 2 1 0 0 0 0 0 0 0 0 0 0 0
0 0 1 1 1 1 0 1 1 1 0 0 0 0 0 0 0 0 0 0 0 0 0 0 0 0 1 2 3 3 2 1 0 0 0 0 0 0 0 0 0 0 0
0 0 0 0 1 1 1 1 0 0 0 0 0 0 0 0 0 0 0 0 0 0 0 0 0 1 1 1 2 2 2 1 0 0 0 0 0 0 0 0 0 0 0
0 0 0 0 1 1 2 2 1 0 0 0 0 0 0 0 0 0 0 0 0 0 0 0 1 1 1 1 1 2 2 2 0 0 0 0 0 0 0 0 0 0 0
0 0 0 0 1 2 1 1 1 0 1 0 1 0 0 0 0 0 0 0 0 0 0 0 0 0 1 1 1 1 2 3 1 0 0 0 0 0 0 0 0 0 0
0 0 0 0 1 2 0 0 0 0 0 0 0 0 0 0 0 0 0 0 0 0 0 0 0 0 0 1 1 1 1 2 2 1 0 0 0 0 0 0 0 0 0
0 0 0 0 0 0 0 0 0 0 0 0 0 0 0 0 0 0 0 0 0 0 0 0 0 0 0 0 0 0 1 1 0 1 0 0 0 0 0 0 0 0 0
0 0 0 0 0 0 0 0 0 0 0 0 0 0 0 0 0 0 0 0 0 0 0 0 0 0 0 0 0 0 1 0 0 0 0 0 0 0 0 0 0 0 0
0 0 0 0 0 0 0 0 0 0 0 0 0 0 0 0 0 0 0 0 0 0 0 0 0 0 0 0 0 0 0 0 0 0 0 0 0 0 0 0 0 0 0
0 0 0 0 0 0 0 0 0 0 0 0 0 0 0 0 0 0 0 0 0 0 0 0 0 -0 -0 0 0 0 0 0 0 0 0 1 0 0 0 0 0 0 0
0 -0 0 0 0 0 0 0 0 0 0 0 0 0 0 -0 0 0 0 0 0 0 0 0 0 0 0 0 0 0 0 0 0 0 0 0 0 0 0 0 0 0 0
0 0 0 0 0 0 0 0 0 0 0 0 0 0 0 0 0 0 0 0 0 0 0 0 0 0 0 0 0 0 0 0 0 0 0 0 0 0 0 0 0 0 0
-0 0 0 0 0 -0 -0 0 0 0 0 0 0 0 0 0 0 0 0 0 0 0 0 0 0 0 0 0 0 0 0 0 0 0 0 0 0 0 0 0 0 0 0
0 0 0 0 0 0 0 -0 -0 -0 -0 0 0 -0 0 0 0 0 0 0 0 0 0 0 0 0 0 0 0 0 0 0 0 0 0 0 0 0 0 0 0 0 0
0 0 0 0 0 0 0 0 0 -0 -0 -0 -0 0 0 0 0 0 0 0 0 0 0 0 0 0 0 0 0 0 0 0 0 0 0 0 0 0 0 0 0 0 0
0 0 0 0 0 0 0 0 0 0 0 0 0 0 0 0 0 0 0 0 0 0 0 0 0 0 0 0 0 0 0 0 0 0 0 0 0 0 0 0 0 0 0
0 0 0 0 0 0 0 0 0 0 0 0 0 0 0 0 0 0 0 0 0 0 0 0 0 0 0 0 0 0 0 0 0 0 0 0 0 0 0 0 0 0 0
0 0 0 0 0 0 0 0 0 0 0 0 0 0 0 0 0 0 0 0 0 0 0 0 0 0 0 0 0 0 0 0 0 0 0 0 0 0 0 0 0 0 0
-0 0 0 0 0 0 0 0 0 0 0 0 0 0 0 0 0 0 0 0 0 0 0 0 0 0 0 0 0 0 0 0 0 0 0 0 0 0 0 0 0 0 0
0 0 0 0 0 0 0 0 0 0 0 0 0 0 0 0 0 0 0 0 0 0 0 0 0 0 0 0 0 0 0 0 0 0 0 0 0 0 0 0 0 -0 -0
0 0 0 0 0 0 0 0 0 0 0 0 0 0 0 0 0 0 0 0 0 0 0 0 0 0 0 0 0 0 0 0 0 0 -0 0 0 0 0 0 -0 -0 -0
0 -0 0 0 0 0 0 0 0 -0 -0 0 0 0 0 0 0 0 0 0 0 0 0 0 0 0 0 0 0 0 0 0 0 0 0 0 0 0 0 -0 -0 -0 -0
0 -0 0 0 0 -0 -0 -0 -0 -0 -0 -0 -0 0 -0 0 0 0 0 0 0 0 0 0 0 0 0 0 0 0 0 0 0 0 0 0 0 0 0 0 -0 -0 -0
-0 0 0 -0 -0 -0 -0 -0 -0 -0 -0 -0 -0 -0 -0 -0 0 0 0 0 0 0 0 0 0 0 0 0 0 0 0 0 0 0 0 0 0 0 0 0 0 -0 -0
0 0 0 0 0 0 0 0 -0 -0 0 -0 -0 -0 0 -0 -0 -0 -0 0 0 0 0 0 0 0 0 0 0 0 0 0 0 0 0 0 0 0 0 0 0 0 0
Wind_Speed_500mb
48 46 48 54 57 55 55 52 52 47 43 39 36 34 31 33 35 39 36 35 37 41 44 46 47 53 55 52 60 71 75 69 68 66 60 54 52 51 47 44 42 41 41
55 54 57 57 61 62 62 58 52 52 48 42 42 39 42 40 42 42 39 41 43 47 53 56 60 57 56 57 57 68 77 77 75 73 68 63 58 56 51 47 44 42 43
58 59 61 63 58 62 67 71 59 55 50 44 41 39 39 40 39 41 44 49 52 56 59 61 61 58 60 58 66 70 79 82 83 81 76 70 66 62 55 50 46 43 44
62 61 62 63 63 61 71 75 65 56 51 46 44 46 44 45 41 39 40 43 46 49 53 60 65 63 60 63 68 72 80 85 89 90 88 81 74 66 59 53 47 47 44
64 66 67 66 64 65 66 67 51 57 47 49 52 48 46 45 40 40 42 44 47 53 56 57 54 54 59 62 68 73 82 88 94 101 97 89 73 68 60 54 50 46 42
60 60 64 63 64 65 62 58 58 52 44 40 38 40 41 43 44 45 46 45 48 44 44 46 50 53 48 47 54 72 81 94 102 110 109 95 76 66 59 55 49 42 40
56 47 47 49 52 60 57 54 58 50 43 42 33 37 40 45 45 53 50 49 46 45 46 45 47 49 59 61 52 51 68 81 89 130 124 104 74 63 64 55 42 40 38
55 47 45 37 41 43 53 59 55 56 54 41 19 31 37 50 54 56 52 54 55 52 50 49 50 48 45 54 63 60 54 54 61 94 64 57 59 63 65 54 42 32 33
51 40 33 32 23 34 35 50 56 58 52 44 48 43 11 27 52 64 58 56 54 54 50 52 53 54 54 56 58 57 50 54 68 65 55 56 60 69 58 54 46 39 33
47 42 33 20 18 13 24 40 49 42 41 33 39 29 30 39 53 53 56 58 50 48 52 51 52 55 56 54 50 52 42 44 40 43 52 82 79 71 62 64 37 29 31
52 51 35 27 18 21 21 19 20 18 23 27 27 30 42 44 47 33 42 47 61 52 52 48 46 51 52 49 57 32 38 47 53 55 66 47 72 67 50 34 40 21 25
59 51 44 36 25 19 19 26 30 32 33 41 45 58 48 39 39 34 46 57 58 53 44 44 44 49 46 48 30 25 40 54 61 76 58 41 16 13 21 14 14 18 27
63 59 47 35 31 27 14 14 17 21 28 30 38 48 51 53 52 47 44 50 52 50 46 37 34 35 32 27 8 12 16 4 15 12 26 17 20 30 14 11 17 21 27
61 51 48 39 31 33 31 22 20 25 31 50 44 43 49 51 48 45 38 37 40 38 35 28 24 20 17 14 17 10 12 5 11 14 18 21 20 12 5 8 20 26 26
54 42 43 38 37 33 41 46 46 50 38 34 42 45 47 45 45 42 39 34 33 18 27 22 21 16 21 28 25 10 12 9 12 9 2 15 17 11 9 10 15 15 17
39 34 38 37 35 33 35 41 44 42 42 37 35 37 36 37 32 32 31 31 30 28 24 22 22 20 30 31 16 8 9 6 15 25 26 20 14 5 3 5 8 9 10
31 33 33 31 28 27 26 27 29 32 29 27 24 22 21 20 19 19 22 25 26 28 26 29 25 23 34 33 25 15 14 22 27 26 24 19 14 11 8 6 5 4 9
29 26 22 24 26 21 14 13 12 13 12 11 10 11 11 14 14 16 18 20 21 23 25 23 22 22 30 34 22 29 19 27 26 21 15 14 18 18 15 18 14 4 11
24 20 14 18 14 11 7 2 4 7 8 9 10 11 11 11 15 15 18 16 17 18 19 20 18 25 35 29 32 29 28 31 22 15 9 15 24 19 20 17 15 16 11
23 15 8 8 9 8 6 7 7 7 6 7 8 10 12 15 16 16 18 16 15 12 5 8 15 31 40 32 43 37 36 31 21 11 5 18 19 14 13 12 18 15 12
8 4 4 5 8 11 11 13 10 7 9 9 9 10 12 12 9 9 16 18 16 13 11 17 27 38 40 44 41 34 37 32 22 11 4 18 12 11 14 16 22 20 19
8 11 16 19 14 18 26 25 27 23 13 6 12 19 32 18 13 9 16 19 22 20 24 31 34 36 38 34 29 38 30 35 24 13 8 16 13 15 20 25 24 23 21
18 17 19 20 23 20 21 18 17 17 14 11 14 27 35 43 18 16 16 16 17 15 24 24 26 26 23 29 29 35 33 27 16 16 6 12 14 20 23 24 19 20 20
23 24 20 20 20 20 19 14 15 23 22 21 22 26 29 33 39 39 34 37 41 41 35 27 25 26 18 19 22 24 22 30 19 13 9 14 17 23 23 20 18 20 21
24 28 24 24 23 23 19 19 25 25 32 26 26 24 22 25 27 27 28 35 37 32 24 19 17 17 20 20 19 25 31 22 20 11 12 14 22 25 23 19 25 24 24
27 27 32 28 27 28 29 26 25 27 30 32 31 29 28 20 15 22 24 25 23 23 20 15 8 15 22 27 28 26 16 15 7 11 13 23 22 16 14 27 28 29 28
Wind_Direction_500mb
273 265 268 269 273 269 260 260 260 257 263 264 271 273 280 290 290 280 274 270 272 276 279 280 282 283 280 272 267 256 257 257 252 252 253 253 250 250 254 261 266 274 284
279 271 261 264 271 271 270 265 264 263 263 272 276 272 283 289 286 280 285 283 279 280 280 281 278 274 274 271 269 260 257 257 253 252 251 250 249 249 249 256 262 272 281
282 272 267 259 262 263 261 259 259 262 265 268 270 274 280 286 286 278 278 279 280 282 278 282 282 282 276 269 269 265 261 260 256 251 249 249 247 246 246 252 259 267 274
298 283 271 266 261 272 262 257 256 264 263 265 269 272 270 275 283 286 286 287 286 289 285 282 281 279 279 273 265 264 266 266 259 256 250 248 243 242 242 249 257 264 274
304 293 284 272 264 266 270 262 247 261 264 260 259 262 269 278 279 282 286 295 296 297 294 284 280 277 276 272 270 266 265 265 264 257 247 244 236 236 239 245 254 262 276
311 298 290 282 268 261 262 257 250 253 249 249 256 263 271 275 280 290 299 299 299 301 307 300 292 285 280 278 275 266 265 264 265 263 246 236 230 236 239 246 252 263 274
322 309 300 284 272 258 257 254 257 251 244 251 265 277 285 286 292 299 299 296 298 305 307 309 302 294 280 277 278 275 266 267 267 256 239 225 221 230 240 246 248 259 275
336 325 320 305 268 258 254 253 258 256 252 241 248 290 297 296 297 293 296 301 304 307 308 303 303 304 297 287 283 281 273 260 269 252 197 256 239 225 236 239 238 258 278
337 330 320 316 300 265 254 251 253 260 252 237 243 242 295 295 295 295 299 302 305 305 304 305 306 303 303 305 284 278 265 268 263 240 243 235 212 222 238 237 244 261 285
345 335 337 316 308 306 251 247 253 236 238 222 229 227 265 284 283 292 295 298 303 308 309 311 312 315 315 312 294 277 264 260 243 229 238 209 215 219 232 229 250 273 278
341 338 341 332 316 255 226 209 218 227 205 210 228 246 268 271 273 264 292 299 306 312 318 318 326 331 337 333 326 305 252 195 212 213 168 151 190 214 221 234 261 265 279
336 329 334 337 310 302 271 251 234 226 224 233 241 260 259 275 274 278 285 294 300 307 305 309 313 319 327 331 312 290 225 214 208 185 167 181 184 228 257 251 253 263 276
336 327 322 325 316 291 266 226 245 249 267 256 250 261 260 267 269 276 274 282 290 300 308 300 302 308 319 328 60 84 33 85 298 286 233 238 252 260 259 250 261 268 275
327 317 312 311 312 293 270 264 245 237 280 281 276 280 278 277 278 279 275 278 288 291 305 290 293 280 264 254 230 283 314 227 202 204 245 234 236 241 191 259 266 270 277
318 310 309 308 296 292 269 264 278 263 283 285 278 280 281 281 283 280 277 268 265 277 282 287 292 277 224 223 232 290 306 261 251 275 296 104 120 140 194 243 265 283 281
310 309 308 305 301 287 283 272 274 274 273 281 284 282 282 285 284 280 273 261 253 261 273 269 285 244 217 219 236 203 168 174 125 116 111 108 94 64 300 284 279 290 293
304 310 307 317 306 306 295 286 286 279 281 289 291 291 291 290 281 285 284 279 275 267 272 272 267 240 219 220 230 175 158 135 118 106 102 88 49 0 357 25 7 360 302
298 303 312 308 306 301 303 310 311 309 311 327 328 313 320 309 310 305 296 289 284 272 265 269 260 217 214 209 197 162 157 134 121 108 94 54 15 0 23 41 5 23 343
308 309 302 296 291 279 294 329 337 325 327 340 338 326 320 328 330 336 317 309 292 279 265 251 240 215 194 189 166 156 156 137 128 108 65 17 1 3 33 34 351 23 20
332 313 289 285 285 289 307 340 350 330 334 336 329 335 350 351 355 358 342 348 347 332 322 241 211 194 182 169 155 153 156 139 148 132 49 6 1 17 32 15 7 43 29
312 305 342 349 336 322 341 353 6 4 2 347 3 15 6 349 2 16 20 34 40 58 104 135 151 159 158 154 167 168 155 161 160 142 18 10 25 33 46 35 50 42 29
60 51 63 54 51 67 66 70 58 44 27 2 52 60 52 41 73 70 61 75 73 79 99 121 128 141 158 169 164 172 152 166 151 155 37 12 41 59 58 62 51 41 32
82 77 80 70 62 42 56 74 58 60 50 68 86 65 63 55 79 83 93 90 80 105 96 103 122 153 152 164 171 166 172 178 173 144 81 49 68 71 66 66 57 50 44
71 64 57 51 44 45 37 55 61 50 71 82 98 71 77 71 72 74 86 77 69 71 75 88 92 91 110 145 137 161 191 166 148 132 76 80 87 77 69 66 56 41 35
67 67 59 58 64 68 72 69 64 54 76 76 86 81 82 81 81 77 78 90 89 84 81 84 100 120 136 146 176 162 159 167 155 135 95 104 99 82 80 64 46 41 46
69 64 65 72 73 71 69 66 66 66 65 61 86 78 84 73 81 72 63 77 70 61 47 42 80 155 165 166 170 178 172 169 142 119 121 133 119 100 74 52 55 49 64
Wind_Speed_850mb
48 46 48 54 57 55 55 52 52 47 43 39 36 34 31 33 35 39 36 35 37 41 44 46 47 53 55 52 60 71 75 69 68 66 60 54 52 51 47 44 42 41 41
55 54 57 57 61 62 62 58 52 52 48 42 42 39 42 40 42 42 39 41 43 47 53 56 60 57 56 57 57 68 77 77 75 73 68 63 58 56 51 47 44 42 43
58 59 61 63 58 62 67 71 59 55 50 44 41 39 39 40 39 41 44 49 52 56 59 61 61 58 60 58 66 70 79 82 83 81 76 70 66 62 55 50 46 43 44
62 61 62 63 63 61 71 75 65 56 51 46 44 46 44 45 41 39 40 43 46 49 53 60 65 63 60 63 68 72 80 85 89 90 88 81 74 66 59 53 47 47 44
64 66 67 66 64 65 66 67 51 57 47 49 52 48 46 45 40 40 42 44 47 53 56 57 54 54 59 62 68 73 82 88 94 101 97 89 73 68 60 54 50 46 42
60 60 64 63 64 65 62 58 58 52 44 40 38 40 41 43 44 45 46 45 48 44 44 46 50 53 48 47 54 72 81 94 102 110 109 95 76 66 59 55 49 42 40
56 47 47 49 52 60 57 54 58 50 43 42 33 37 40 45 45 53 50 49 46 45 46 45 47 49 59 61 52 51 68 81 89 130 124 104 74 63 64 55 42 40 38
55 47 45 37 41 43 53 59 55 56 54 41 19 31 37 50 54 56 52 54 55 52 50 49 50 48 45 54 63 60 54 54 61 94 64 57 59 63 65 54 42 32 33
51 40 33 32 23 34 35 50 56 58 52 44 48 43 11 27 52 64 58 56 54 54 50 52 53 54 54 56 58 57 50 54 68 65 55 56 60 69 58 54 46 39 33
47 42 33 20 18 13 24 40 49 42 41 33 39 29 30 39 53 53 56 58 50 48 52 51 52 55 56 54 50 52 42 44 40 43 52 82 79 71 62 64 37 29 31
52 51 35 27 18 21 21 19 20 18 23 27 27 30 42 44 47 33 42 47 61 52 52 48 46 51 52 49 57 32 38 47 53 55 66 47 72 67 50 34 40 21 25
59 51 44 36 25 19 19 26 30 32 33 41 45 58 48 39 39 34 46 57 58 53 44 44 44 49 46 48 30 25 40 54 61 76 58 41 16 13 21 14 14 18 27
63 59 47 35 31 27 14 14 17 21 28 30 38 48 51 53 52 47 44 50 52 50 46 37 34 35 32 27 8 12 16 4 15 12 26 17 20 30 14 11 17 21 27
61 51 48 39 31 33 31 22 20 25 31 50 44 43 49 51 48 45 38 37 40 38 35 28 24 20 17 14 17 10 12 5 11 14 18 21 20 12 5 8 20 26 26
54 42 43 38 37 33 41 46 46 50 38 34 42 45 47 45 45 42 39 34 33 18 27 22 21 16 21 28 25 10 12 9 12 9 2 15 17 11 9 10 15 15 17
39 34 38 37 35 33 35 41 44 42 42 37 35 37 36 37 32 32 31 31 30 28 24 22 22 20 30 31 16 8 9 6 15 25 26 20 14 5 3 5 8 9 10
31 33 33 31 28 27 26 27 29 32 29 27 24 22 21 20 19 19 22 25 26 28 26 29 25 23 34 33 25 15 14 22 27 26 24 19 14 11 8 6 5 4 9
29 26 22 24 26 21 14 13 12 13 12 11 10 11 11 14 14 16 18 20 21 23 25 23 22 22 30 34 22 29 19 27 26 21 15 14 18 18 15 18 14 4 11
24 20 14 18 14 11 7 2 4 7 8 9 10 11 11 11 15 15 18 16 17 18 19 20 18 25 35 29 32 29 28 31 22 15 9 15 24 19 20 17 15 16 11
23 15 8 8 9 8 6 7 7 7 6 7 8 10 12 15 16 16 18 16 15 12 5 8 15 31 40 32 43 37 36 31 21 11 5 18 19 14 13 12 18 15 12
8 4 4 5 8 11 11 13 10 7 9 9 9 10 12 12 9 9 16 18 16 13 11 17 27 38 40 44 41 34 37 32 22 11 4 18 12 11 14 16 22 20 19
8 11 16 19 14 18 26 25 27 23 13 6 12 19 32 18 13 9 16 19 22 20 24 31 34 36 38 34 29 38 30 35 24 13 8 16 13 15 20 25 24 23 21
18 17 19 20 23 20 21 18 17 17 14 11 14 27 35 43 18 16 16 16 17 15 24 24 26 26 23 29 29 35 33 27 16 16 6 12 14 20 23 24 19 20 20
23 24 20 20 20 20 19 14 15 23 22 21 22 26 29 33 39 39 34 37 41 41 35 27 25 26 18 19 22 24 22 30 19 13 9 14 17 23 23 20 18 20 21
24 28 24 24 23 23 19 19 25 25 32 26 26 24 22 25 27 27 28 35 37 32 24 19 17 17 20 20 19 25 31 22 20 11 12 14 22 25 23 19 25 24 24
27 27 32 28 27 28 29 26 25 27 30 32 31 29 28 20 15 22 24 25 23 23 20 15 8 15 22 27 28 26 16 15 7 11 13 23 22 16 14 27 28 29 28
Wind_Direction_850mb
273 265 268 269 273 269 260 260 260 257 263 264 271 273 280 290 290 280 274 270 272 276 279 280 282 283 280 272 267 256 257 257 252 252 253 253 250 250 254 261 266 274 284
279 271 261 264 271 271 270 265 264 263 263 272 276 272 283 289 286 280 285 283 279 280 280 281 278 274 274 271 269 260 257 257 253 252 251 250 249 249 249 256 262 272 281
282 272 267 259 262 263 261 259 259 262 265 268 270 274 280 286 286 278 278 279 280 282 278 282 282 282 276 269 269 265 261 260 256 251 249 249 247 246 246 252 259 267 274
298 283 271 266 261 272 262 257 256 264 263 265 269 272 270 275 283 286 286 287 286 289 285 282 281 279 279 273 265 264 266 266 259 256 250 248 243 242 242 249 257 264 274
304 293 284 272 264 266 270 262 247 261 264 260 259 262 269 278 279 282 286 295 296 297 294 284 280 277 276 272 270 266 265 265 264 257 247 244 236 236 239 245 254 262 276
311 298 290 282 268 261 262 257 250 253 249 249 256 263 271 275 280 290 299 299 299 301 307 300 292 285 280 278 275 266 265 264 265 263 246 236 230 236 239 246 252 263 274
322 309 300 284 272 258 257 254 257 251 244 251 265 277 285 286 292 299 299 296 298 305 307 309 302 294 280 277 278 275 266 267 267 256 239 225 221 230 240 246 248 259 275
336 325 320 305 268 258 254 253 258 256 252 241 248 290 297 296 297 293 296 301 304 307 308 303 303 304 297 287 283 281 273 260 269 252 197 256 239 225 236 239 238 258 278
337 330 320 316 300 265 254 251 253 260 252 237 243 242 295 295 295 295 299 302 305 305 304 305 306 303 303 305 284 278 265 268 263 240 243 235 212 222 238 237 244 261 285
345 335 337 316 308 306 251 247 253 236 238 222 229 227 265 284 283 292 295 298 303 308 309 311 312 315 315 312 294 277 264 260 243 229 238 209 215 219 232 229 250 273 278
341 338 341 332 316 255 226 209 218 227 205 210 228 246 268 271 273 264 292 299 306 312 318 318 326 331 337 333 326 305 252 195 212 213 168 151 190 214 221 234 261 265 279
336 329 334 337 310 302 271 251 234 226 224 233 241 260 259 275 274 278 285 294 300 307 305 309 313 319 327 331 312 290 225 214 208 185 167 181 184 228 257 251 253 263 276
336 327 322 325 316 291 266 226 245 249 267 256 250 261 260 267 269 276 274 282 290 300 308 300 302 308 319 328 60 84 33 85 298 286 233 238 252 260 259 250 261 268 275
327 317 312 311 312 293 270 264 245 237 280 281 276 280 278 277 278 279 275 278 288 291 305 290 293 280 264 254 230 283 314 227 202 204 245 234 236 241 191 259 266 270 277
318 310 309 308 296 292 269 264 278 263 283 285 278 280 281 281 283 280 277 268 265 277 282 287 292 277 224 223 232 290 306 261 251 275 296 104 120 140 194 243 265 283 281
310 309 308 305 301 287 283 272 274 274 273 281 284 282 282 285 284 280 273 261 253 261 273 269 285 244 217 219 236 203 168 174 125 116 111 108 94 64 300 284 279 290 293
304 310 307 317 306 306 295 286 286 279 281 289 291 291 291 290 281 285 284 279 275 267 272 272 267 240 219 220 230 175 158 135 118 106 102 88 49 0 357 25 7 360 302
298 303 312 308 306 301 303 310 311 309 311 327 328 313 320 309 310 305 296 289 284 272 265 269 260 217 214 209 197 162 157 134 121 108 94 54 15 0 23 41 5 23 343
308 309 302 296 291 279 294 329 337 325 327 340 338 326 320 328 330 336 317 309 292 279 265 251 240 215 194 189 166 156 156 137 128 108 65 17 1 3 33 34 351 23 20
332 313 289 285 285 289 307 340 350 330 334 336 329 335 350 351 355 358 342 348 347 332 322 241 211 194 182 169 155 153 156 139 148 132 49 6 1 17 32 15 7 43 29
312 305 342 349 336 322 341 353 6 4 2 347 3 15 6 349 2 16 20 34 40 58 104 135 151 159 158 154 167 168 155 161 160 142 18 10 25 33 46 35 50 42 29
60 51 63 54 51 67 66 70 58 44 27 2 52 60 52 41 73 70 61 75 73 79 99 121 128 141 158 169 164 172 152 166 151 155 37 12 41 59 58 62 51 41 32
82 77 80 70 62 42 56 74 58 60 50 68 86 65 63 55 79 83 93 90 80 105 96 103 122 153 152 164 171 166 172 178 173 144 81 49 68 71 66 66 57 50 44
71 64 57 51 44 45 37 55 61 50 71 82 98 71 77 71 72 74 86 77 69 71 75 88 92 91 110 145 137 161 191 166 148 132 76 80 87 77 69 66 56 41 35
67 67 59 58 64 68 72 69 64 54 76 76 86 81 82 81 81 77 78 90 89 84 81 84 100 120 136 146 176 162 159 167 155 135 95 104 99 82 80 64 46 41 46
69 64 65 72 73 71 69 66 66 66 65 61 86 78 84 73 81 72 63 77 70 61 47 42 80 155 165 166 170 178 172 169 142 119 121 133 119 100 74 52 55 49 64